Total_Precipitation_Accumulation
0.06 0.09 0.09 0.10 0.12 0.12 0.13 0.13 0.13 0.13 0.14 0.11 0.12 0.10 0.10 0.11 0.09 0.07 0.07 0.07 0.09 0.08 0.08 0.06 0.04 0.03 0.03 0.04 0.02 0.02 0.01 0.01 0.01 0.01 0.01 0.00 0.00 0.00 0.00 0.00 0.00 0.00 0.00 0.02 0.01 0.01 0.02 0.02 0.04 0.04 0.08 0.06 0.06 0.03 0.03 0.01 0.01 0.01 0.01 0.02 0.03 0.04 0.04 0.05 0.05 0.05 0.05 0.04 0.03
0.06 0.08 0.08 0.12 0.13 0.13 0.12 0.12 0.11 0.11 0.11 0.10 0.09 0.09 0.09 0.09 0.09 0.10 0.10 0.13 0.14 0.13 0.13 0.09 0.06 0.05 0.05 0.04 0.04 0.04 0.03 0.04 0.03 0.02 0.02 0.01 0.00 0.00 0.00 0.00 0.00 0.00 0.00 0.02 0.01 0.01 0.02 0.02 0.03 0.03 0.05 0.05 0.06 0.05 0.05 0.01 0.02 0.02 0.02 0.03 0.05 0.06 0.06 0.07 0.07 0.07 0.06 0.06 0.04
0.10 0.11 0.11 0.12 0.13 0.13 0.14 0.14 0.12 0.12 0.11 0.10 0.08 0.07 0.07 0.06 0.07 0.09 0.09 0.09 0.09 0.11 0.11 0.13 0.09 0.08 0.08 0.07 0.06 0.06 0.09 0.06 0.05 0.04 0.04 0.01 0.00 0.00 0.00 0.00 0.00 0.00 0.00 0.00 0.01 0.01 0.02 0.01 0.02 0.02 0.03 0.04 0.06 0.05 0.05 0.02 0.02 0.03 0.03 0.04 0.08 0.08 0.08 0.09 0.08 0.08 0.07 0.07 0.06
0.18 0.18 0.18 0.15 0.14 0.14 0.14 0.13 0.12 0.12 0.12 0.11 0.09 0.08 0.08 0.08 0.06 0.04 0.04 0.03 0.04 0.08 0.08 0.16 0.15 0.13 0.13 0.12 0.15 0.15 0.14 0.10 0.07 0.06 0.06 0.04 0.00 0.00 0.00 0.00 0.00 0.00 0.00 0.01 0.01 0.01 0.01 0.00 0.00 0.00 0.03 0.04 0.06 0.05 0.05 0.04 0.03 0.04 0.04 0.08 0.09 0.10 0.10 0.08 0.08 0.08 0.08 0.08 0.09
0.25 0.23 0.23 0.16 0.13 0.13 0.11 0.10 0.12 0.12 0.14 0.13 0.14 0.11 0.11 0.08 0.03 0.02 0.02 0.03 0.07 0.17 0.17 0.25 0.23 0.18 0.18 0.18 0.19 0.19 0.14 0.10 0.07 0.05 0.05 0.02 0.00 0.00 0.00 0.00 0.00 0.00 0.00 0.02 0.02 0.02 0.01 0.01 0.00 0.00 0.03 0.04 0.06 0.06 0.06 0.04 0.05 0.07 0.07 0.11 0.10 0.10 0.10 0.09 0.07 0.07 0.06 0.08 0.09
0.23 0.21 0.21 0.14 0.11 0.11 0.10 0.13 0.17 0.17 0.20 0.16 0.12 0.09 0.09 0.06 0.04 0.12 0.12 0.16 0.17 0.21 0.21 0.25 0.21 0.21 0.21 0.20 0.20 0.20 0.12 0.07 0.04 0.02 0.02 0.00 0.00 0.00 0.00 0.00 0.00 0.00 0.00 0.02 0.04 0.04 0.06 0.05 0.03 0.03 0.02 0.05 0.06 0.05 0.05 0.04 0.04 0.09 0.09 0.11 0.10 0.09 0.09 0.09 0.07 0.07 0.05 0.07 0.12
0.15 0.15 0.15 0.10 0.09 0.09 0.13 0.15 0.16 0.16 0.11 0.08 0.07 0.06 0.06 0.05 0.12 0.13 0.13 0.11 0.11 0.15 0.15 0.24 0.22 0.20 0.20 0.22 0.21 0.21 0.15 0.05 0.02 0.00 0.00 0.00 0.00 0.00 0.00 0.00 0.00 0.00 0.00 0.02 0.07 0.07 0.06 0.06 0.07 0.07 0.08 0.07 0.06 0.05 0.05 0.04 0.05 0.07 0.07 0.09 0.08 0.08 0.08 0.08 0.09 0.09 0.05 0.08 0.16
0.08 0.08 0.08 0.05 0.06 0.06 0.08 0.10 0.09 0.09 0.06 0.05 0.04 0.04 0.04 0.04 0.06 0.07 0.07 0.09 0.14 0.16 0.16 0.18 0.18 0.17 0.17 0.20 0.21 0.21 0.12 0.04 0.02 0.01 0.01 0.00 0.00 0.00 0.00 0.00 0.00 0.00 0.00 0.01 0.08 0.08 0.05 0.08 0.10 0.10 0.10 0.14 0.07 0.06 0.06 0.04 0.05 0.06 0.06 0.08 0.07 0.07 0.07 0.07 0.10 0.10 0.08 0.12 0.18
0.03 0.03 0.03 0.03 0.05 0.05 0.07 0.09 0.08 0.08 0.04 0.03 0.02 0.02 0.02 0.02 0.06 0.07 0.07 0.15 0.18 0.15 0.15 0.17 0.15 0.14 0.14 0.14 0.12 0.12 0.06 0.05 0.07 0.05 0.05 0.03 0.01 0.00 0.00 0.00 0.00 0.00 0.00 0.00 0.06 0.06 0.05 0.08 0.09 0.09 0.13 0.17 0.09 0.08 0.08 0.05 0.05 0.05 0.05 0.06 0.07 0.06 0.06 0.07 0.08 0.08 0.10 0.16 0.21
0.01 0.02 0.02 0.03 0.03 0.03 0.04 0.08 0.06 0.06 0.02 0.01 0.01 0.01 0.01 0.02 0.13 0.19 0.19 0.19 0.13 0.12 0.12 0.15 0.11 0.08 0.08 0.06 0.06 0.06 0.04 0.05 0.06 0.05 0.05 0.03 0.01 0.00 0.00 0.00 0.00 0.00 0.00 0.00 0.07 0.07 0.10 0.10 0.09 0.09 0.16 0.18 0.13 0.14 0.14 0.08 0.04 0.06 0.06 0.06 0.07 0.10 0.10 0.10 0.12 0.12 0.13 0.19 0.23
0.01 0.03 0.03 0.04 0.03 0.03 0.02 0.05 0.06 0.06 0.01 0.01 0.02 0.03 0.03 0.04 0.21 0.22 0.22 0.15 0.10 0.09 0.09 0.09 0.05 0.05 0.05 0.02 0.02 0.02 0.02 0.03 0.01 0.02 0.02 0.00 0.00 0.00 0.00 0.00 0.00 0.00 0.00 0.02 0.09 0.09 0.15 0.15 0.13 0.13 0.19 0.19 0.17 0.17 0.17 0.10 0.05 0.09 0.09 0.12 0.13 0.14 0.14 0.16 0.15 0.15 0.15 0.23 0.24
0.02 0.04 0.04 0.05 0.02 0.02 0.02 0.03 0.03 0.03 0.02 0.02 0.03 0.04 0.04 0.06 0.14 0.08 0.08 0.05 0.05 0.04 0.04 0.04 0.05 0.07 0.07 0.03 0.03 0.03 0.03 0.02 0.00 0.01 0.01 0.00 0.00 0.00 0.00 0.00 0.00 0.00 0.00 0.03 0.11 0.11 0.19 0.17 0.19 0.19 0.21 0.21 0.19 0.17 0.17 0.08 0.13 0.15 0.15 0.15 0.14 0.15 0.15 0.16 0.18 0.18 0.19 0.22 0.23
0.04 0.06 0.06 0.05 0.03 0.03 0.02 0.02 0.00 0.00 0.03 0.02 0.02 0.04 0.04 0.09 0.11 0.02 0.02 0.04 0.04 0.04 0.04 0.04 0.12 0.11 0.11 0.04 0.03 0.03 0.04 0.04 0.00 0.01 0.01 0.00 0.00 0.00 0.00 0.00 0.01 0.03 0.03 0.06 0.13 0.13 0.23 0.22 0.21 0.21 0.21 0.21 0.18 0.14 0.14 0.13 0.16 0.16 0.16 0.15 0.14 0.14 0.14 0.15 0.19 0.19 0.22 0.22 0.21
0.02 0.04 0.04 0.02 0.01 0.01 0.01 0.01 0.01 0.01 0.03 0.02 0.02 0.05 0.05 0.09 0.05 0.02 0.02 0.04 0.03 0.03 0.03 0.04 0.07 0.13 0.13 0.06 0.05 0.05 0.04 0.04 0.05 0.02 0.02 0.00 0.00 0.00 0.00 0.00 0.02 0.05 0.05 0.07 0.15 0.15 0.28 0.27 0.21 0.21 0.23 0.20 0.15 0.13 0.13 0.12 0.12 0.15 0.15 0.15 0.14 0.16 0.16 0.17 0.17 0.17 0.22 0.20 0.20
0.01 0.01 0.01 0.00 0.00 0.00 0.01 0.01 0.02 0.02 0.02 0.01 0.02 0.04 0.04 0.03 0.05 0.07 0.07 0.04 0.02 0.02 0.02 0.07 0.12 0.12 0.12 0.05 0.03 0.03 0.02 0.03 0.09 0.08 0.08 0.00 0.00 0.00 0.00 0.01 0.05 0.09 0.09 0.09 0.22 0.22 0.36 0.32 0.26 0.26 0.25 0.19 0.14 0.14 0.14 0.13 0.15 0.16 0.16 0.16 0.15 0.18 0.18 0.19 0.20 0.20 0.24 0.19 0.19
0.01 0.01 0.01 0.00 0.00 0.00 0.00 0.01 0.03 0.03 0.02 0.02 0.02 0.01 0.01 0.03 0.10 0.18 0.18 0.12 0.04 0.04 0.04 0.09 0.14 0.14 0.14 0.06 0.04 0.04 0.02 0.03 0.07 0.07 0.07 0.00 0.01 0.01 0.01 0.04 0.09 0.13 0.13 0.14 0.34 0.34 0.45 0.36 0.28 0.28 0.27 0.17 0.13 0.09 0.09 0.11 0.16 0.17 0.17 0.17 0.18 0.21 0.21 0.22 0.22 0.22 0.22 0.19 0.16
0.00 0.00 0.00 0.01 0.01 0.01 0.02 0.04 0.05 0.05 0.03 0.01 0.00 0.01 0.01 0.06 0.17 0.29 0.29 0.24 0.15 0.10 0.10 0.11 0.16 0.18 0.18 0.04 0.04 0.04 0.04 0.03 0.07 0.06 0.06 0.00 0.02 0.02 0.02 0.08 0.15 0.20 0.20 0.20 0.47 0.47 0.58 0.43 0.31 0.31 0.22 0.13 0.10 0.10 0.10 0.13 0.18 0.19 0.19 0.19 0.21 0.23 0.23 0.23 0.19 0.19 0.19 0.19 0.15
0.01 0.01 0.01 0.01 0.04 0.04 0.07 0.10 0.08 0.08 0.01 0.01 0.01 0.02 0.02 0.09 0.23 0.60 0.60 0.75 0.75 0.61 0.61 0.52 0.52 0.33 0.33 0.08 0.06 0.06 0.04 0.06 0.10 0.06 0.06 0.04 0.08 0.18 0.18 0.21 0.32 0.33 0.33 0.25 0.74 0.74 0.69 0.45 0.25 0.25 0.15 0.11 0.11 0.15 0.15 0.17 0.21 0.23 0.23 0.25 0.26 0.26 0.26 0.25 0.17 0.17 0.14 0.15 0.16
0.03 0.03 0.03 0.03 0.05 0.05 0.07 0.12 0.09 0.09 0.01 0.01 0.02 0.06 0.06 0.15 0.30 0.63 0.63 0.82 0.94 0.76 0.76 0.63 0.56 0.30 0.30 0.08 0.09 0.09 0.06 0.10 0.12 0.08 0.08 0.06 0.25 0.26 0.26 0.32 0.45 0.43 0.43 0.36 0.57 0.57 0.64 0.38 0.17 0.17 0.10 0.10 0.14 0.16 0.16 0.20 0.24 0.24 0.24 0.23 0.25 0.24 0.24 0.22 0.17 0.17 0.13 0.14 0.15
0.10 0.09 0.09 0.08 0.09 0.09 0.09 0.18 0.16 0.16 0.02 0.04 0.05 0.15 0.15 0.28 0.38 0.24 0.24 0.45 0.56 0.45 0.45 0.31 0.23 0.15 0.15 0.12 0.09 0.09 0.12 0.20 0.15 0.11 0.11 0.26 0.36 0.39 0.39 0.46 0.56 0.51 0.51 0.42 0.56 0.56 0.56 0.29 0.12 0.12 0.09 0.10 0.16 0.18 0.18 0.20 0.23 0.21 0.21 0.20 0.21 0.20 0.20 0.21 0.20 0.20 0.15 0.16 0.18
0.20 0.18 0.18 0.14 0.11 0.11 0.12 0.23 0.19 0.19 0.06 0.07 0.12 0.21 0.21 0.36 0.30 0.12 0.12 0.17 0.21 0.23 0.23 0.22 0.18 0.13 0.13 0.13 0.14 0.14 0.23 0.27 0.19 0.18 0.18 0.46 0.52 0.52 0.52 0.57 0.63 0.50 0.50 0.38 0.51 0.51 0.58 0.16 0.10 0.10 0.10 0.17 0.19 0.17 0.17 0.17 0.19 0.18 0.18 0.18 0.20 0.18 0.18 0.23 0.26 0.26 0.22 0.19 0.18
0.24 0.24 0.24 0.21 0.17 0.17 0.23 0.24 0.16 0.16 0.08 0.14 0.20 0.23 0.23 0.18 0.12 0.07 0.07 0.12 0.14 0.22 0.22 0.24 0.20 0.18 0.18 0.26 0.25 0.25 0.43 0.41 0.32 0.57 0.57 0.65 0.63 0.63 0.63 0.60 0.55 0.37 0.37 0.28 0.45 0.45 0.44 0.13 0.11 0.11 0.14 0.19 0.20 0.17 0.17 0.14 0.14 0.17 0.17 0.18 0.21 0.18 0.18 0.25 0.26 0.26 0.24 0.21 0.16
0.04 0.07 0.07 0.10 0.07 0.07 0.07 0.10 0.20 0.20 0.22 0.23 0.16 0.09 0.09 0.10 0.10 0.14 0.14 0.26 0.28 0.34 0.34 0.33 0.29 0.36 0.36 0.45 0.47 0.47 0.56 0.52 0.59 0.69 0.69 0.64 0.60 0.57 0.57 0.50 0.43 0.26 0.26 0.23 0.35 0.35 0.22 0.12 0.14 0.14 0.20 0.21 0.20 0.17 0.17 0.14 0.14 0.16 0.16 0.17 0.23 0.17 0.17 0.19 0.23 0.23 0.21 0.16 0.12
0.04 0.05 0.05 0.05 0.03 0.03 0.03 0.05 0.18 0.18 0.23 0.22 0.22 0.25 0.25 0.26 0.28 0.36 0.36 0.46 0.44 0.39 0.39 0.42 0.49 0.73 0.73 0.74 0.60 0.60 0.53 0.39 0.51 0.53 0.53 0.48 0.42 0.39 0.39 0.40 0.30 0.21 0.21 0.21 0.22 0.22 0.09 0.09 0.13 0.13 0.21 0.19 0.18 0.16 0.16 0.15 0.14 0.15 0.15 0.15 0.22 0.12 0.12 0.13 0.17 0.17 0.17 0.10 0.07
0.05 0.06 0.06 0.06 0.06 0.06 0.06 0.07 0.23 0.23 0.36 0.45 0.49 0.48 0.48 0.47 0.54 0.65 0.65 0.63 0.57 0.53 0.53 0.64 0.90 0.97 0.97 0.70 0.55 0.55 0.31 0.33 0.34 0.35 0.35 0.34 0.30 0.27 0.27 0.28 0.24 0.22 0.22 0.20 0.12 0.12 0.07 0.10 0.16 0.16 0.22 0.19 0.17 0.17 0.17 0.16 0.15 0.14 0.14 0.15 0.13 0.08 0.08 0.10 0.16 0.16 0.12 0.08 0.06
0.09 0.09 0.09 0.08 0.08 0.08 0.09 0.12 0.35 0.35 0.50 0.61 0.65 0.71 0.71 0.78 0.88 0.98 0.98 0.76 0.66 0.62 0.62 0.77 0.80 0.57 0.57 0.42 0.29 0.29 0.28 0.26 0.24 0.24 0.24 0.22 0.20 0.19 0.19 0.21 0.23 0.23 0.23 0.16 0.11 0.11 0.12 0.17 0.25 0.25 0.22 0.19 0.15 0.14 0.14 0.13 0.14 0.14 0.14 0.14 0.11 0.09 0.09 0.10 0.15 0.15 0.12 0.09 0.10
0.14 0.14 0.14 0.14 0.14 0.14 0.20 0.26 0.33 0.33 0.38 0.42 0.53 0.68 0.68 0.79 0.79 0.64 0.64 0.49 0.50 0.62 0.62 0.59 0.38 0.27 0.27 0.24 0.24 0.24 0.23 0.19 0.18 0.15 0.15 0.14 0.15 0.17 0.17 0.19 0.20 0.20 0.20 0.15 0.15 0.15 0.19 0.23 0.24 0.24 0.21 0.19 0.14 0.14 0.14 0.12 0.13 0.14 0.14 0.13 0.13 0.12 0.12 0.10 0.12 0.12 0.12 0.13 0.15
0.16 0.17 0.17 0.17 0.18 0.18 0.19 0.20 0.30 0.30 0.34 0.43 0.52 0.58 0.58 0.47 0.37 0.31 0.31 0.31 0.36 0.32 0.32 0.23 0.21 0.18 0.18 0.17 0.17 0.17 0.17 0.14 0.14 0.15 0.15 0.14 0.15 0.17 0.17 0.18 0.21 0.22 0.22 0.19 0.22 0.22 0.26 0.26 0.24 0.24 0.19 0.16 0.14 0.13 0.13 0.14 0.15 0.17 0.17 0.15 0.16 0.15 0.15 0.12 0.09 0.09 0.12 0.13 0.10
0.20 0.25 0.25 0.28 0.29 0.29 0.30 0.36 0.46 0.46 0.51 0.56 0.42 0.27 0.27 0.21 0.20 0.20 0.20 0.20 0.14 0.14 0.14 0.17 0.12 0.12 0.12 0.13 0.14 0.14 0.14 0.15 0.16 0.15 0.15 0.15 0.16 0.17 0.17 0.19 0.22 0.25 0.25 0.21 0.26 0.26 0.27 0.25 0.20 0.20 0.18 0.15 0.11 0.13 0.13 0.14 0.15 0.15 0.15 0.16 0.18 0.21 0.21 0.20 0.18 0.18 0.17 0.16 0.14
0.43 0.41 0.41 0.43 0.50 0.50 0.55 0.61 0.47 0.47 0.34 0.27 0.19 0.15 0.15 0.14 0.13 0.11 0.11 0.10 0.10 0.11 0.11 0.09 0.10 0.12 0.12 0.13 0.13 0.13 0.15 0.17 0.14 0.12 0.12 0.13 0.16 0.18 0.18 0.21 0.23 0.28 0.28 0.26 0.29 0.29 0.28 0.19 0.14 0.14 0.13 0.12 0.08 0.10 0.10 0.08 0.08 0.10 0.10 0.13 0.18 0.26 0.26 0.30 0.26 0.26 0.27 0.26 0.28
0.11 0.11 0.11 0.13 0.34 0.34 0.36 0.31 0.16 0.16 0.15 0.14 0.15 0.15 0.15 0.16 0.15 0.13 0.13 0.19 0.18 0.13 0.13 0.11 0.13 0.15 0.15 0.15 0.15 0.15 0.18 0.19 0.16 0.13 0.13 0.14 0.16 0.19 0.19 0.23 0.26 0.30 0.30 0.30 0.29 0.29 0.26 0.15 0.12 0.12 0.11 0.09 0.06 0.07 0.07 0.06 0.05 0.07 0.07 0.07 0.09 0.09 0.09 0.09 0.15 0.15 0.24 0.27 0.27
0.16 0.16 0.16 0.18 0.22 0.22 0.26 0.25 0.14 0.14 0.10 0.10 0.11 0.14 0.14 0.21 0.22 0.21 0.21 0.20 0.16 0.15 0.15 0.15 0.16 0.17 0.17 0.17 0.18 0.18 0.19 0.19 0.19 0.14 0.14 0.13 0.16 0.21 0.21 0.26 0.29 0.35 0.35 0.34 0.32 0.32 0.31 0.14 0.12 0.12 0.12 0.12 0.09 0.10 0.10 0.09 0.03 0.03 0.03 0.05 0.08 0.10 0.10 0.15 0.21 0.21 0.33 0.36 0.13
0.16 0.17 0.17 0.20 0.24 0.24 0.29 0.32 0.32 0.32 0.29 0.26 0.23 0.22 0.22 0.23 0.23 0.23 0.23 0.20 0.16 0.13 0.13 0.12 0.13 0.14 0.14 0.15 0.16 0.16 0.17 0.18 0.19 0.16 0.16 0.15 0.16 0.22 0.22 0.29 0.35 0.39 0.39 0.35 0.35 0.35 0.32 0.18 0.18 0.18 0.20 0.18 0.14 0.17 0.17 0.13 0.05 0.06 0.06 0.07 0.08 0.12 0.12 0.16 0.30 0.30 0.35 0.35 0.05
0.14 0.15 0.15 0.18 0.20 0.20 0.22 0.22 0.18 0.18 0.17 0.18 0.20 0.19 0.19 0.18 0.18 0.18 0.18 0.17 0.14 0.12 0.12 0.11 0.11 0.13 0.13 0.12 0.12 0.12 0.14 0.15 0.15 0.14 0.14 0.14 0.17 0.27 0.27 0.34 0.39 0.40 0.40 0.40 0.38 0.38 0.36 0.27 0.29 0.29 0.31 0.29 0.29 0.35 0.35 0.19 0.07 0.07 0.07 0.08 0.10 0.14 0.14 0.28 0.39 0.39 0.37 0.23 0.03
0.08 0.11 0.11 0.13 0.15 0.15 0.15 0.14 0.09 0.09 0.09 0.11 0.13 0.13 0.13 0.13 0.16 0.19 0.19 0.20 0.17 0.17 0.17 0.15 0.14 0.14 0.14 0.13 0.11 0.11 0.11 0.12 0.13 0.13 0.13 0.13 0.28 0.38 0.38 0.42 0.46 0.43 0.43 0.38 0.39 0.39 0.39 0.34 0.32 0.32 0.34 0.31 0.30 0.20 0.20 0.13 0.09 0.10 0.10 0.15 0.21 0.25 0.25 0.36 0.42 0.42 0.21 0.07 0.04
0.10 0.12 0.12 0.14 0.15 0.15 0.13 0.10 0.08 0.08 0.09 0.12 0.16 0.20 0.20 0.24 0.27 0.28 0.28 0.24 0.20 0.18 0.18 0.18 0.15 0.14 0.14 0.13 0.12 0.12 0.12 0.11 0.12 0.15 0.15 0.21 0.44 0.48 0.48 0.45 0.48 0.44 0.44 0.45 0.50 0.50 0.48 0.41 0.38 0.38 0.31 0.18 0.15 0.12 0.12 0.09 0.20 0.23 0.23 0.26 0.29 0.30 0.30 0.34 0.31 0.31 0.19 0.07 0.04
0.11 0.12 0.12 0.13 0.15 0.15 0.15 0.09 0.11 0.11 0.16 0.21 0.26 0.27 0.27 0.31 0.34 0.34 0.34 0.24 0.19 0.17 0.17 0.16 0.16 0.16 0.16 0.15 0.14 0.14 0.14 0.12 0.12 0.17 0.17 0.29 0.44 0.47 0.47 0.42 0.45 0.54 0.54 0.60 0.62 0.62 0.53 0.42 0.38 0.38 0.32 0.23 0.19 0.16 0.16 0.17 0.36 0.35 0.35 0.34 0.32 0.29 0.29 0.25 0.19 0.19 0.13 0.09 0.06
0.16 0.15 0.15 0.15 0.16 0.16 0.19 0.22 0.25 0.25 0.27 0.27 0.26 0.26 0.26 0.28 0.30 0.30 0.30 0.22 0.17 0.18 0.18 0.17 0.19 0.19 0.19 0.17 0.16 0.16 0.15 0.13 0.12 0.24 0.24 0.43 0.53 0.50 0.50 0.39 0.61 0.74 0.74 0.74 0.70 0.70 0.56 0.41 0.42 0.42 0.38 0.35 0.32 0.28 0.28 0.53 0.50 0.44 0.44 0.43 0.38 0.30 0.30 0.23 0.16 0.16 0.11 0.07 0.05
0.14 0.16 0.16 0.20 0.23 0.23 0.26 0.36 0.44 0.44 0.45 0.44 0.45 0.46 0.46 0.40 0.41 0.42 0.42 0.35 0.28 0.25 0.25 0.21 0.20 0.17 0.17 0.13 0.13 0.13 0.14 0.16 0.22 0.36 0.36 0.51 0.53 0.37 0.37 0.33 0.75 0.82 0.82 0.80 0.71 0.71 0.55 0.43 0.44 0.44 0.39 0.37 0.40 0.48 0.48 0.51 0.44 0.40 0.40 0.36 0.30 0.22 0.22 0.17 0.12 0.12 0.09 0.07 0.05
0.12 0.13 0.13 0.14 0.19 0.19 0.24 0.33 0.38 0.38 0.42 0.48 0.50 0.48 0.48 0.46 0.48 0.46 0.46 0.39 0.32 0.25 0.25 0.19 0.16 0.13 0.13 0.10 0.11 0.11 0.16 0.24 0.30 0.36 0.36 0.44 0.37 0.28 0.28 0.43 0.70 0.79 0.79 0.77 0.70 0.70 0.52 0.43 0.40 0.40 0.36 0.39 0.48 0.54 0.54 0.44 0.40 0.37 0.37 0.26 0.21 0.17 0.17 0.14 0.11 0.11 0.07 0.04 0.03
0.10 0.10 0.10 0.13 0.15 0.15 0.16 0.22 0.27 0.27 0.30 0.32 0.35 0.40 0.40 0.43 0.44 0.43 0.43 0.38 0.30 0.23 0.23 0.18 0.17 0.17 0.17 0.16 0.19 0.19 0.27 0.37 0.41 0.42 0.42 0.38 0.32 0.40 0.40 0.53 0.63 0.83 0.83 0.81 0.73 0.73 0.63 0.51 0.45 0.45 0.46 0.47 0.51 0.51 0.51 0.46 0.42 0.40 0.40 0.32 0.21 0.16 0.16 0.11 0.08 0.08 0.03 0.02 0.01